Location: Lugano
(46.0000°N, 8.9670°E)
Time: 16:32:04
(UTC+02:00)

Envisat - Pass Details

Date: 12 March 2026
Orbit: 761 x 762 km, 98.4° (Epoch: 19 April)

Event Time Altitude Azimuth Distance (km) Brightness Sun altitude
Rises 03:58:12 0° 6° (N) 3,236 6.7 -28.6°
Reaches altitude 10° 04:00:39 10° 358° (N) 2,306 5.7 -28.2°
Enters shadow 04:03:12 26° 337° (NNW) 1,488 4.5 -27.8°
